DW1289 Weather Reports


time (UTC)temp
F
wind
direction
speed
knots
gust
knots
rain 1hr
in
rain 24hr
in
rain mn
in
humidity
%
barometer
mb
20260507074016 45 0.0 0.0 0.00 0.00 0.00 81 1015.4
20260507073016 45 0.0 0.0 0.00 0.00 0.00 81 1015.5
20260507072016 46 0.0 0.0 0.00 0.01 0.00 81 1015.7
20260507071016 46 0.0 0.0 0.00 0.01 0.00 81 1015.4
20260507070016 46 0.0 0.0 0.00 0.02 0.00 80 1015.4
20260507065016 47 0.0 0.0 0.00 0.06 0.00 81 1015.5
20260507064016 47 0.0 0.0 0.00 0.08 0.00 80 1015.7
20260507063016 47 0.0 0.0 0.00 0.10 0.00 80 1015.6
20260507062016 47 0.0 0.0 0.00 0.13 0.00 79 1015.7
20260507061016 48 0.0 0.0 0.00 0.15 0.00 80 1015.8
20260507060016 48 0.0 0.0 0.00 0.15 0.00 80 1015.8
20260507055016 48 0.0 0.0 0.00 0.17 0.00 80 1015.7
20260507054016 48 0.0 0.0 0.00 0.18 0.00 79 1015.9
20260507053016 48 0.0 0.0 0.00 0.19 0.00 79 1015.8
20260507052016 48 0.0 0.0 0.00 0.21 0.00 79 1015.8
20260507051016 48 0.0 0.0 0.00 0.26 0.00 79 1015.8
20260507050036 49 0.0 0.0 0.00 0.31 0.00 79 1015.5
20260507045016 49 0.0 0.0 0.00 0.34 0.00 79 1015.6
20260507044016 49 0.0 0.0 0.00 0.37 0.00 79 1015.6
20260507043036 49 0.0 0.0 0.00 0.39 0.00 80 1015.5
20260507042016 49 0.0 0.0 0.00 0.52 0.00 79 1015.7
20260507041036 50 0.0 0.0 0.00 0.54 0.00 79 1015.9
20260507040016 50 0.0 0.0 0.00 0.54 0.00 78 1015.7
20260507035016 50 0.0 0.0 0.00 0.54 0.54 78 1015.6
20260507034036 51 0.0 0.0 0.00 0.56 0.54 77 1015.8
20260507033016 51 0.0 0.0 0.00 0.56 0.54 75 1015.9
20260507032017 51 0.0 0.0 0.00 0.56 0.54 74 1015.9
20260507031016 52 0.0 0.0 0.00 0.56 0.54 72 1015.6
20260507030016 52 0.0 0.0 0.00 0.56 0.54 71 1015.5
20260507025036 53 0.0 0.0 0.00 0.57 0.54 70 1015.4
20260507024016 53 0.0 0.0 0.00 0.58 0.54 69 1015.4
20260507023016 54 0.0 0.0 0.00 0.59 0.54 68 1015.2
20260507022016 54 0.0 0.0 0.00 0.60 0.54 67 1015.2
20260507021016 55 0.0 0.0 0.00 0.60 0.54 66 1015.2
20260507020016 55 0.0 0.0 0.00 0.60 0.54 64 1014.8
20260507015016 56 0.0 0.0 0.00 0.60 0.54 63 1014.7
20260507014016 56 0.0 0.0 0.00 0.60 0.54 62 1014.5
20260507013016 57 0.0 0.0 0.00 0.60 0.54 60 1014.5
20260507012016 57 0.0 0.0 0.00 0.60 0.54 59 1014.5
20260507011036 58 0.0 0.9 0.00 0.60 0.54 59 1014.5
20260507010016 58 0.0 0.9 0.00 0.60 0.54 58 1014.4
20260507005016 58 0.0 0.9 0.00 0.60 0.54 58 1014.3
20260507004016 58 0 0.9 2.6 0.00 0.60 0.54 57 1014.4
20260507003016 59 0.0 2.6 0.00 0.60 0.54 57 1014.5
20260507002016 59 315 0.9 4.3 0.00 0.60 0.54 57 1014.4
20260507001016 59 293 1.7 5.2 0.00 0.61 0.54 58 1014.4
20260507000016 60 270 0.9 4.3 0.00 0.61 0.54 59 1014.3
20260506235016 60 0.0 2.6 0.00 0.62 0.54 58 1014.1
20260506234016 60 315 0.9 2.6 0.00 0.63 0.54 56 1013.9
20260506233016 60 0 0.9 2.6 0.00 0.68 0.54 54 1013.8
20260506232016 61 338 0.9 4.3 0.00 0.70 0.54 53 1014.1
20260506231016 61 270 0.9 3.5 0.00 0.72 0.54 52 1014.1
20260506230036 61 293 0.9 2.6 0.00 0.73 0.54 52 1014.2
20260506225016 61 0 1.7 5.2 0.00 0.74 0.54 52 1014.0
20260506224016 61 315 1.7 6.1 0.00 0.74 0.54 50 1014.2
20260506223017 61 248 1.7 4.3 0.00 0.76 0.54 51 1013.6
20260506222036 62 248 1.7 6.1 0.00 0.78 0.54 52 1013.3
20260506221016 62 338 1.7 7.0 0.00 0.79 0.54 49 1013.5
20260506220056 62 248 1.7 5.2 0.00 0.84 0.54 49 1013.6
20260506215016 62 338 1.7 4.3 0.00 0.85 0.54 51 1013.6
20260506214016 62 338 1.7 5.2 0.00 0.85 0.54 49 1013.0
20260506213016 62 248 1.7 5.2 0.00 0.85 0.54 52 1013.5
20260506212016 62 248 1.7 5.2 0.00 0.85 0.54 50 1013.5
20260506211016 62 270 1.7 6.1 0.00 0.85 0.54 50 1014.0
20260506210016 63 293 1.7 5.2 0.00 0.85 0.54 48 1013.9
20260506205016 63 248 1.7 3.5 0.00 0.85 0.54 50 1013.8
20260506204016 63 270 1.7 4.3 0.00 0.85 0.54 50 1014.0
20260506203016 63 23 1.7 5.2 0.00 0.85 0.54 46 1014.1
20260506202016 64 45 1.7 7.8 0.00 0.85 0.54 48 1013.8
20260506201016 64 45 1.7 7.0 0.00 0.85 0.54 48 1013.7
20260506200016 64 338 1.7 7.0 0.00 0.85 0.54 50 1013.7
20260506195016 64 248 1.7 7.0 0.00 0.85 0.54 48 1013.8
20260506194036 64 0 1.7 5.2 0.00 0.85 0.54 49 1014.1
20260506193036 64 68 1.7 7.8 0.00 0.85 0.54 51 1014.2
20260506192016 65 45 2.6 7.8 0.00 0.85 0.54 50 1014.0
20260506191016 66 248 2.6 6.1 0.00 0.86 0.54 52 1013.9
20260506190016 64 68 2.6 7.8 0.00 0.87 0.54 54 1013.8
20260506185016 65 45 1.7 6.1 0.00 0.90 0.54 55 1013.6
20260506184036 64 68 1.7 5.2 0.00 0.91 0.54 56 1013.7
20260506183016 63 315 1.7 7.0 0.00 0.93 0.54 52 1014.0
20260506182016 63 0 1.7 7.8 0.00 0.93 0.54 49 1013.6
20260506181016 62 45 1.7 4.3 0.00 0.94 0.54 53 1013.7
20260506180036 63 45 2.6 7.0 0.00 0.94 0.54 52 1013.8
20260506175016 63 45 2.6 8.7 0.00 0.94 0.54 51 1014.0
20260506174016 63 45 3.5 7.8 0.00 0.94 0.54 52 1013.6
20260506173016 62 45 3.5 9.6 0.00 0.94 0.54 53 1013.7
20260506172016 62 68 3.5 7.8 0.00 0.94 0.54 55 1014.0
20260506171016 62 45 2.6 8.7 0.00 0.94 0.54 53 1014.2
20260506170016 62 45 2.6 7.8 0.00 0.94 0.54 56 1014.3
20260506165016 61 68 2.6 9.6 0.00 0.94 0.54 56 1014.2
20260506164036 61 45 4.3 9.6 0.00 0.94 0.54 56 1014.6
20260506163016 60 45 4.3 10.4 0.00 0.94 0.54 53 1014.4
20260506162016 60 45 3.5 8.7 0.00 0.94 0.54 54 1014.6
20260506161056 60 45 3.5 8.7 0.00 0.94 0.54 56 1014.6
20260506160016 60 45 2.6 9.6 0.00 0.94 0.54 55 1014.6
20260506155036 60 23 2.6 8.7 0.00 0.94 0.54 56 1014.6
20260506154016 59 45 3.5 9.6 0.00 0.94 0.54 61 1014.3
20260506153016 58 68 3.5 7.8 0.00 0.94 0.54 59 1014.2
20260506152016 58 45 3.5 7.8 0.00 0.94 0.54 58 1013.8
20260506151016 56 338 3.5 8.7 0.00 0.94 0.54 64 1013.6
20260506150016 55 68 1.7 6.1 0.00 0.94 0.54 66 1013.8
20260506145016 55 68 3.5 9.6 0.00 0.94 0.54 66 1014.0
20260506144016 54 45 3.5 8.7 0.00 0.94 0.54 68 1013.6
20260506143016 54 23 1.7 7.8 0.00 0.94 0.54 73 1013.7
20260506142016 53 45 2.6 7.0 0.00 0.94 0.54 73 1013.6
20260506141016 52 45 1.7 7.0 0.00 0.94 0.54 80 1013.5
20260506140016 51 315 0.9 4.3 0.00 0.94 0.54 83 1013.3
20260506135016 50 338 1.7 7.0 0.00 0.94 0.54 84 1013.4
20260506134036 49 315 1.7 6.1 0.00 0.94 0.54 84 1013.1
20260506133017 49 45 0.9 4.3 0.00 0.94 0.54 85 1013.2
20260506132016 48 45 0.9 3.5 0.00 0.94 0.54 85 1012.9
20260506131016 48 338 0.9 5.2 0.00 0.94 0.54 86 1013.1
20260506130016 48 0 0.9 2.6 0.00 0.94 0.54 86 1012.7
20260506125016 47 338 0.9 4.3 0.00 0.94 0.54 86 1012.7
20260506124016 47 45 0.9 3.5 0.00 0.94 0.54 87 1012.3
20260506123016 47 68 0.9 2.6 0.00 0.94 0.54 87 1012.4
20260506122016 47 45 1.7 6.1 0.00 0.94 0.54 87 1012.6
20260506121016 47 45 0.9 7.0 0.00 0.94 0.54 88 1012.4
20260506120036 47 68 0.9 5.2 0.00 0.94 0.54 88 1012.3
20260506115016 47 338 0.9 3.5 0.00 0.94 0.54 88 1012.3
20260506114016 46 68 0.9 5.2 0.00 0.94 0.54 88 1012.4
20260506113016 46 0 1.7 4.3 0.00 0.94 0.54 88 1012.1
20260506112016 46 338 0.9 4.3 0.00 0.94 0.54 88 1011.7
20260506111016 46 68 0.9 4.3 0.00 0.94 0.54 87 1011.3
20260506110016 47 45 1.7 5.2 0.00 0.94 0.54 87 1011.0
20260506105016 47 315 0.9 3.5 0.00 0.94 0.54 88 1011.4
20260506104036 47 23 0.9 3.5 0.00 0.94 0.54 88 1011.0
20260506103036 47 45 1.7 5.2 0.00 0.94 0.54 88 1011.0
20260506102016 47 315 1.7 7.0 0.00 0.94 0.54 88 1010.9
20260506101036 48 68 2.6 7.0 0.00 0.94 0.54 89 1010.2
20260506100016 48 23 1.7 7.0 0.00 0.94 0.54 89 1010.1
20260506095016 48 338 1.7 7.0 0.00 0.94 0.54 90 1010.4
20260506094016 48 0 1.7 5.2 0.00 0.94 0.54 90 1009.9
20260506093016 49 23 1.7 5.2 0.00 0.94 0.54 91 1009.7
20260506092036 49 338 0.9 5.2 0.00 0.94 0.54 91 1009.8
20260506091036 49 45 3.5 11.3 0.00 0.94 0.54 91 1009.6
20260506090016 49 45 3.5 13.9 0.00 0.94 0.54 92 1009.6
20260506085016 50 45 2.6 8.7 0.00 0.94 0.54 92 1009.6
20260506084016 50 45 3.5 10.4 0.00 0.94 0.54 92 1009.4
20260506083016 50 68 1.7 5.2 0.00 0.94 0.54 92 1009.3
20260506082016 50 45 1.7 5.2 0.01 0.94 0.54 92 1009.2
20260506081016 50 45 3.5 8.7 0.01 0.94 0.54 92 1008.9